Flight Track Log - Related Links

Times and Time Zones

All times are in EDT time to prevent confusion due to time zone crossing. See the SWA709 flight status page for this flight to view local times or setup timezone preferences in your user account.

Time Position Orientation Groundspeed Altitude Reporting Facility
EDT Latitude Longitude Course Direction KTS MPH feet Rate Location/Type
Tue 07:23:38 AM 30.1461 -97.7342 278° West 207 238 6,000  Level Houston Center
Tue 07:24:39 AM 30.1922 -97.7861 316° Northwest 228 262 9,300 3,393 Climbing Houston Center
Tue 07:25:40 AM 30.2550 -97.8778 308° West 317 365 12,900 3,492 Climbing Houston Center
Tue 07:26:41 AM 30.2781 -97.9878 284° West 351 404 16,400 3,443 Climbing Houston Center
Tue 07:27:42 AM 30.3033 -98.1031 284° West 367 422 19,900 3,000 Climbing Houston Center
Tue 07:28:00 AM 30.4189 -98.0192 278° West  Level FlightAware Approximate
Tue 07:28:43 AM 30.3272 -98.2097 285° West 385 443 22,500  Level Houston Center
Tue 07:29:44 AM 30.3550 -98.3372 284° West 400 460 25,200 2,607 Climbing Houston Center
Tue 07:30:45 AM 30.3842 -98.4725 284° West 423 487 27,800 2,902 Climbing Houston Center
Tue 07:31:46 AM 30.4172 -98.6272 284° West 419 482 31,100 2,678 Climbing Houston Center
Tue 07:32:46 AM 30.4456 -98.7600 284° West 419 482 33,200 1,983 Climbing Houston Center
Tue 07:33:47 AM 30.4756 -98.8961 284° West 428 493 35,100 1,869 Climbing Houston Center
Tue 07:34:48 AM 30.5042 -99.0303 284° West 426 490 37,000 1,574 Climbing Houston Center
Tue 07:35:49 AM 30.5289 -99.1417 284° West 422 486 38,300 1,377 Climbing Houston Center
Tue 07:36:50 AM 30.5569 -99.2714 284° West 417 480 39,800 836 Climbing Houston Center
Tue 07:37:51 AM 30.5886 -99.4267 283° West 414 476 40,000 98 Climbing Houston Center
Tue 07:38:52 AM 30.6158 -99.5556 284° West 414 476 40,000  Level Houston Center
Tue 07:39:53 AM 30.6428 -99.6847 284° West 413 475 40,000  Level Houston Center
Tue 07:40:54 AM 30.6672 -99.8125 283° West 408 470 40,000  Level Houston Center
Tue 07:41:55 AM 30.6936 -99.9419 283° West 414 476 40,000  Level Houston Center
Tue 07:42:56 AM 30.7211 -100.0744 284° West 420 483 40,000  Level Houston Center
Tue 07:43:57 AM 30.7478 -100.2067 283° West 422 486 40,000  Level Houston Center
Tue 07:44:58 AM 30.7744 -100.3406 283° West 429 494 40,000  Level Houston Center
Tue 07:45:59 AM 30.8008 -100.4736 283° West 428 493 40,000  Level Houston Center
Tue 07:47:00 AM 30.8272 -100.6067 283° West 427 491 40,000  Level Houston Center
Tue 07:48:01 AM 30.8589 -100.7669 283° West 425 489 40,000  Level Houston Center
Tue 07:49:02 AM 30.8847 -100.9011 283° West 427 491 40,000  Level Houston Center
Tue 07:50:03 AM 30.9103 -101.0361 282° West 429 494 40,000  Level Houston Center
Tue 07:51:04 AM 30.9372 -101.1711 283° West 430 495 40,000  Level Houston Center
Tue 07:52:06 AM 30.9650 -101.3039 284° West 427 491 40,000  Level Houston Center
Tue 07:53:07 AM 30.9944 -101.4547 283° West 428 493 40,000  Level Houston Center
Tue 07:54:08 AM 31.0181 -101.5914 281° West 429 494 40,000  Level Houston Center
Tue 07:55:09 AM 31.0442 -101.7269 283° West 429 494 40,000  Level Houston Center
Tue 07:56:10 AM 31.0700 -101.8622 283° West 427 491 40,000  Level Houston Center
Tue 07:57:12 AM 31.0958 -101.9997 282° West 431 496 40,000  Level Houston Center
Tue 07:58:19 AM 31.1250 -102.1650 282° West 438 504 40,000  Level Albuquerque Center
Tue 07:59:20 AM 31.1500 -102.3008 282° West 432 497 40,000  Level Albuquerque Center
Tue 08:00:19 AM 31.1750 -102.4372 282° West 437 503 40,000  Level Albuquerque Center
Tue 08:01:20 AM 31.1972 -102.5603 282° West 431 496 40,000  Level Albuquerque Center
Tue 08:02:20 AM 31.2219 -102.6964 282° West 425 489 40,000  Level Albuquerque Center
Tue 08:03:20 AM 31.2489 -102.8331 283° West 430 495 40,000  Level Albuquerque Center
Tue 08:04:20 AM 31.3114 -102.9544 301° West 434 499 40,000  Level Albuquerque Center
Tue 08:05:21 AM 31.3758 -103.0756 302° West 435 501 40,000  Level Albuquerque Center
Tue 08:06:21 AM 31.4389 -103.1958 302° West 436 502 40,000  Level Albuquerque Center
Tue 08:07:21 AM 31.5022 -103.3158 302° West 434 499 40,000  Level Albuquerque Center
Tue 08:08:22 AM 31.5661 -103.4375 302° West 435 501 40,000  Level Albuquerque Center
Tue 08:09:22 AM 31.6353 -103.5722 301° West 434 499 40,000  Level Albuquerque Center
Tue 08:10:22 AM 31.6989 -103.6922 302° West 433 498 40,000  Level Albuquerque Center
Tue 08:11:23 AM 31.7572 -103.8039 302° West 431 496 40,000  Level Albuquerque Center
Tue 08:12:23 AM 31.8186 -103.9231 301° West 429 494 40,000  Level Albuquerque Center
Tue 08:13:24 AM 31.8867 -104.0525 302° West 431 496 40,000  Level Albuquerque Center
Tue 08:14:24 AM 31.9436 -104.1625 301° West 432 497 40,000  Level Albuquerque Center
Tue 08:15:24 AM 32.0047 -104.2808 301° West 428 493 40,000  Level Albuquerque Center
Tue 08:16:25 AM 32.0644 -104.3972 301° West 422 486 40,000  Level Albuquerque Center
Tue 08:17:25 AM 32.1231 -104.5150 300° West 420 483 40,000  Level Albuquerque Center
Tue 08:18:26 AM 32.1836 -104.6328 301° West 420 483 40,000  Level Albuquerque Center
Tue 08:19:26 AM 32.2542 -104.7694 301° West 412 474 40,000  Level Albuquerque Center
Tue 08:20:27 AM 32.3144 -104.8886 301° West 420 483 40,000  Level Albuquerque Center
Tue 08:21:27 AM 32.3736 -105.0081 300° West 422 486 40,000  Level Albuquerque Center
Tue 08:22:27 AM 32.4350 -105.1292 301° West 430 495 40,000  Level Albuquerque Center
Tue 08:23:28 AM 32.4942 -105.2494 300° West 428 493 40,000  Level Albuquerque Center
Tue 08:24:28 AM 32.5519 -105.3681 300° West 420 483 40,000  Level Albuquerque Center
Tue 08:25:29 AM 32.6119 -105.4864 301° West 420 483 40,000  Level Albuquerque Center
Tue 08:26:29 AM 32.6706 -105.6058 300° West 420 483 40,000  Level Albuquerque Center
Tue 08:27:30 AM 32.7292 -105.7258 300° West 421 484 40,000  Level Albuquerque Center
Tue 08:28:30 AM 32.7883 -105.8456 300° West 422 486 40,000  Level Albuquerque Center
Tue 08:29:31 AM 32.8439 -105.9567 301° West 427 491 40,000  Level Albuquerque Center
Tue 08:30:31 AM 32.9156 -106.1031 300° West 429 494 40,000  Level Albuquerque Center
Tue 08:31:32 AM 32.9742 -106.2242 300° West 427 491 40,000  Level Albuquerque Center
Tue 08:32:33 AM 33.0328 -106.3456 300° West 425 489 40,000  Level Albuquerque Center
Tue 08:33:33 AM 33.0917 -106.4675 300° West 426 490 40,000  Level Albuquerque Center
Tue 08:34:34 AM 33.1519 -106.5900 300° West 428 493 40,000  Level Albuquerque Center
Tue 08:35:34 AM 33.2114 -106.7144 300° West 432 497 40,000  Level Albuquerque Center
Tue 08:36:35 AM 33.2703 -106.8389 300° West 433 498 40,000  Level Albuquerque Center
Tue 08:37:35 AM 33.3306 -106.9656 300° West 438 504 40,000  Level Albuquerque Center
Tue 08:38:36 AM 33.3903 -107.0908 300° West 438 504 40,000  Level Albuquerque Center
Tue 08:39:36 AM 33.4503 -107.2156 300° West 436 502 40,000  Level Albuquerque Center
Tue 08:40:37 AM 33.5094 -107.3403 300° West 434 499 40,000  Level Albuquerque Center
Tue 08:41:37 AM 33.5694 -107.4697 299° West 441 507 40,000  Level Albuquerque Center
Tue 08:42:38 AM 33.6283 -107.5933 300° West 436 502 40,000  Level Albuquerque Center
Tue 08:43:38 AM 33.6875 -107.7192 299° West 434 499 40,000  Level Albuquerque Center
Tue 08:44:39 AM 33.7458 -107.8447 299° West 434 499 40,000  Level Albuquerque Center
Tue 08:45:39 AM 33.8028 -107.9711 298° West 433 498 40,000  Level Albuquerque Center
Tue 08:46:40 AM 33.8611 -108.0958 299° West 431 496 40,000  Level Albuquerque Center
Tue 08:47:40 AM 33.9317 -108.2439 300° West 429 494 40,000  Level Albuquerque Center
Tue 08:48:41 AM 33.9892 -108.3689 299° West 430 495 40,000  Level Albuquerque Center
Tue 08:49:41 AM 34.0461 -108.4953 299° West 433 498 40,000  Level Albuquerque Center
Tue 08:50:42 AM 34.1053 -108.6247 299° West 441 507 40,000  Level Albuquerque Center
Tue 08:51:43 AM 34.1631 -108.7517 299° West 439 505 40,000  Level Albuquerque Center
Tue 08:52:43 AM 34.2203 -108.8772 299° West 434 499 40,000  Level Albuquerque Center
Tue 08:53:44 AM 34.2778 -109.0033 299° West 433 498 40,000  Level Albuquerque Center
Tue 08:54:44 AM 34.3408 -109.1458 298° West 436 502 40,000  Level Albuquerque Center
Tue 08:55:45 AM 34.3972 -109.2681 299° West 436 502 40,000  Level Albuquerque Center
Tue 08:56:45 AM 34.4606 -109.4139 298° West 437 503 40,000  Level Albuquerque Center
Tue 08:57:46 AM 34.5164 -109.5378 299° West 437 503 40,000  Level Albuquerque Center
Tue 08:58:46 AM 34.5714 -109.6617 298° West 435 501 40,000  Level Albuquerque Center
Tue 08:59:47 AM 34.6258 -109.7858 298° West 434 499 40,000  Level Albuquerque Center
Tue 09:00:48 AM 34.6878 -109.9278 298° West 429 494 40,000  Level Albuquerque Center
Tue 09:01:48 AM 34.7419 -110.0508 298° West 429 494 40,000  Level Albuquerque Center
Tue 09:02:49 AM 34.7967 -110.1767 298° West 434 499 40,000  Level Albuquerque Center
Tue 09:03:49 AM 34.8581 -110.3225 297° West 436 502 40,000  Level Albuquerque Center
Tue 09:04:50 AM 34.8861 -110.4514 285° West 426 490 40,000  Level Albuquerque Center
Tue 09:05:51 AM 34.9186 -110.5858 286° West 425 489 40,000  Level Albuquerque Center
Tue 09:06:51 AM 34.9561 -110.7386 287° West 424 488 40,000  Level Albuquerque Center
Tue 09:07:52 AM 34.9886 -110.8708 287° West 426 490 40,000  Level Albuquerque Center
Tue 09:08:52 AM 35.0239 -111.0108 287° West 431 496 40,000  Level Albuquerque Center
Tue 09:09:53 AM 35.0592 -111.1522 287° West 437 503 40,000  Level Albuquerque Center
Tue 09:10:54 AM 35.0928 -111.2892 287° West 428 493 40,000  Level Albuquerque Center
Tue 09:11:55 AM 35.1272 -111.4256 287° West 424 488 40,000  Level Albuquerque Center
Tue 09:12:55 AM 35.1606 -111.5628 287° West 423 487 40,000  Level Albuquerque Center
Tue 09:13:56 AM 35.1936 -111.6997 286° West 423 487 40,000  Level Albuquerque Center
Tue 09:14:57 AM 35.2311 -111.8586 286° West 424 488 40,000  Level Albuquerque Center
Tue 09:15:58 AM 35.2653 -111.9964 287° West 426 490 40,000  Level Albuquerque Center
Tue 09:16:58 AM 35.2986 -112.1361 286° West 429 494 40,000  Level Albuquerque Center
Tue 09:17:59 AM 35.3319 -112.2758 286° West 430 495 40,000  Level Albuquerque Center
Tue 09:19:00 AM 35.3650 -112.4153 286° West 430 495 40,000  Level Albuquerque Center
Tue 09:20:01 AM 35.3975 -112.5544 286° West 429 494 40,000  Level Albuquerque Center
Tue 09:21:01 AM 35.4303 -112.6919 286° West 427 491 40,000 -149 Level Albuquerque Center
Tue 09:22:02 AM 35.4633 -112.8414 285° West 424 488 39,700 -1,328 Descending Albuquerque Center
Tue 09:23:03 AM 35.4942 -112.9789 285° West 424 488 37,300 -2,656 Descending Albuquerque Center
Tue 09:24:04 AM 35.5281 -113.1183 287° West 410 472 34,300 -2,951 Descending Albuquerque Center
Tue 09:25:05 AM 35.5603 -113.2586 286° West 425 489 31,300 -2,705 Descending Albuquerque Center
Tue 09:26:06 AM 35.5919 -113.3981 286° West 428 493 28,800 -2,418 Descending Albuquerque Center
Tue 09:27:19 AM 35.6269 -113.5589 285° West 410 472 25,900 -2,463 Descending Los Angeles Center
Tue 09:28:20 AM 35.6456 -113.6908 280° West 396 456 23,300 -2,459 Descending Los Angeles Center
Tue 09:29:21 AM 35.6639 -113.8178 280° West 384 442 20,900 -2,098 Descending Los Angeles Center
Tue 09:30:23 AM 35.6808 -113.9400 280° West 368 423 19,000 -1,756 Descending Los Angeles Center
Tue 09:31:24 AM 35.6969 -114.0553 280° West 347 399 17,300 -2,039 Descending Los Angeles Center
Tue 09:32:06 AM 35.7089 -114.1486 279° West 343 395 15,500 -2,459 Descending Los Angeles Center
Tue 09:32:25 AM 35.7161 -114.1900 282° West 347 399 14,800 -2,327 Descending Los Angeles Center
Tue 09:32:55 AM 35.7278 -114.2508 283° West 351 404 13,600 -2,262 Descending Los Angeles Center
Tue 09:33:26 AM 35.7314 -114.3044 275° West 339 390 12,500 -1,574 Descending Los Angeles Center
Tue 09:33:56 AM 35.7422 -114.3628 283° West 336 387 12,000 -492 Descending Los Angeles Center
Tue 09:34:27 AM 35.7694 -114.3953 316° Northwest 317 365 12,000  Level Los Angeles Center
Tue 09:34:57 AM 35.8178 -114.4197 338° Northwest 303 349 12,000 -97 Level Los Angeles Center
Tue 09:35:29 AM 35.8472 -114.4339 339° North 300 345 11,900 -700 Descending Los Angeles Center
Tue 09:35:57 AM 35.8817 -114.4831 311° West 302 348 11,300 -984 Descending Los Angeles Center
Tue 09:36:30 AM 35.9008 -114.5114 310° West 293 337 10,900 -984 Descending Los Angeles Center
Tue 09:36:58 AM 35.9353 -114.5581 312° West 297 342 10,300 -984 Descending Los Angeles Center
Tue 09:37:31 AM 35.9539 -114.5878 308° West 291 335 9,900 -1,082 Descending Los Angeles Center
Tue 09:37:59 AM 35.9867 -114.6339 311° West 285 328 9,200 -1,065 Descending Los Angeles Center
Tue 09:38:33 AM 36.0061 -114.6597 313° West 282 325 8,800 -689 Descending Los Angeles Center
Tue 09:39:00 AM 36.0344 -114.7031 309° West 269 310 8,500 -1,377 Descending Los Angeles Center
Tue 09:39:34 AM 36.0464 -114.7492 288° West 255 293 7,400 -1,600 Descending Los Angeles Center
Tue 09:40:00 AM 36.0511 -114.7878 279° West 259 298 6,900 -1,180 Descending Los Angeles Center
Tue 09:40:35 AM 36.0617 -114.8372 285° West 257 296 6,200 -1,180 Descending Los Angeles Center
Tue 09:41:01 AM 36.0694 -114.8803 283° West 256 295 5,700 -1,065 Descending Los Angeles Center
Tue 09:41:37 AM 36.0775 -114.9231 283° West 258 297 5,100 -1,200 Descending Los Angeles Center
Tue 09:41:56 AM 36.0767 -114.9525 268° West 249 287 4,600 -1,180 Descending Los Angeles Center
Tue 09:42:38 AM 36.0778 -115.0000 272° West 237 273 3,900 -1,075 Descending Los Angeles Center
Tue 09:43:03 AM 36.0767 -115.0322 268° West 192 221 3,400 -774 Descending Los Angeles Center
Tue 09:43:40 AM 36.0775 -115.0597 272° West 202 232 3,100 -700 Descending Los Angeles Center
Tue 09:44:03 AM 36.0769 -115.0828 268° West 135 155 2,700 -769 Descending Los Angeles Center
Tue 09:44:58 AM 36.0769 -115.1228 270° West 133 153 2,100 -655 Descending Los Angeles Center
Tue 09:46:00 AM 36.0667 -115.1500 270° West  Level FlightAware Approximate
Tue 09:53:00 AM 36.0801 -115.1523 270° West  Level Estimated

Login

Don't have an account? Register now (free) for customized features, flight alerts, and more!